TimeCST,TemperatureF,Dew PointF,Humidity,Sea Level PressureIn,VisibilityMPH,Wind Direction,Wind SpeedMPH,Gust SpeedMPH,PrecipitationIn,Events,Conditions,WindDirDegrees,DateUTC
12:00 AM,14.0,14.0,100,30.01,4.0,ENE,9.2,-,0.09,Snow,Light Snow,60,2012-12-28 06:00:00
12:20 AM,14.0,14.0,100,30.01,3.0,ENE,9.2,-,0.07,Snow,Light Snow,60,2012-12-28 06:20:00
12:40 AM,14.0,14.0,100,30.00,8.0,ENE,9.2,-,0.11,Snow,Light Snow,70,2012-12-28 06:40:00
1:00 AM,14.0,14.0,100,30.00,10.0,ENE,9.2,-,0.12,Snow,Light Snow,70,2012-12-28 07:00:00
1:20 AM,14.0,14.0,100,30.00,10.0,ENE,9.2,-,N/A,Snow,Light Snow,70,2012-12-28 07:20:00
1:40 AM,14.0,14.0,100,30.00,10.0,ENE,10.4,-,N/A,Snow,Light Snow,70,2012-12-28 07:40:00
2:00 AM,14.0,14.0,100,30.00,10.0,ENE,10.4,-,0.01,Snow,Light Snow,60,2012-12-28 08:00:00
2:20 AM,14.0,14.0,100,30.00,10.0,ENE,9.2,-,N/A,Snow,Light Snow,60,2012-12-28 08:20:00
2:40 AM,14.0,14.0,100,30.01,10.0,NE,9.2,-,N/A,Snow,Light Snow,50,2012-12-28 08:40:00
3:00 AM,14.0,14.0,100,30.01,8.0,NE,10.4,-,0.01,Snow,Light Snow,50,2012-12-28 09:00:00
3:20 AM,14.0,14.0,100,30.01,8.0,NE,9.2,-,0.02,Snow,Light Snow,50,2012-12-28 09:20:00
3:40 AM,14.0,14.0,100,30.00,5.0,NE,8.1,-,0.07,Snow,Light Snow,50,2012-12-28 09:40:00
4:00 AM,14.0,14.0,100,30.00,7.0,NE,9.2,-,0.12,Snow,Light Snow,50,2012-12-28 10:00:00
4:20 AM,14.0,14.0,100,29.99,7.0,NE,9.2,-,0.02,Snow,Light Snow,50,2012-12-28 10:20:00
4:40 AM,12.2,12.2,100,29.99,9.0,NE,9.2,-,0.03,Snow,Light Snow,50,2012-12-28 10:40:00
5:00 AM,12.2,12.2,100,29.99,10.0,NE,6.9,-,0.04,Snow,Light Snow,40,2012-12-28 11:00:00
5:20 AM,12.2,12.2,100,29.99,10.0,NE,6.9,-,N/A,Snow,Light Snow,40,2012-12-28 11:20:00
5:40 AM,12.2,12.2,100,29.99,10.0,NE,6.9,-,0.01,Snow,Light Snow,40,2012-12-28 11:40:00
6:00 AM,10.4,10.4,100,29.99,10.0,NNE,6.9,-,0.04,Snow,Light Snow,30,2012-12-28 12:00:00
6:20 AM,10.4,10.4,100,29.99,10.0,NNE,6.9,-,N/A,Snow,Light Snow,30,2012-12-28 12:20:00
6:40 AM,10.4,10.4,100,30.00,10.0,NNE,8.1,-,N/A,Snow,Light Snow,30,2012-12-28 12:40:00
7:00 AM,10.4,10.4,100,30.00,10.0,North,6.9,-,N/A,Snow,Light Snow,10,2012-12-28 13:00:00
7:20 AM,10.4,10.4,100,30.00,10.0,NE,6.9,-,N/A,Snow,Light Snow,40,2012-12-28 13:20:00
7:40 AM,10.4,10.4,100,30.00,10.0,NE,6.9,-,N/A,Snow,Light Snow,40,2012-12-28 13:40:00
8:00 AM,10.4,10.4,100,30.00,10.0,NNE,8.1,-,N/A,Snow,Light Snow,20,2012-12-28 14:00:00
8:20 AM,10.4,10.4,100,30.01,10.0,North,5.8,-,N/A,,Mostly Cloudy,10,2012-12-28 14:20:00
8:40 AM,8.6,8.6,100,30.01,10.0,NE,5.8,-,N/A,,Overcast,50,2012-12-28 14:40:00
9:00 AM,8.6,8.6,100,30.01,10.0,NE,4.6,-,N/A,,Mostly Cloudy,40,2012-12-28 15:00:00
9:20 AM,10.4,10.4,100,30.02,10.0,North,4.6,-,N/A,Snow,Light Snow,360,2012-12-28 15:20:00
9:40 AM,10.4,10.4,100,30.02,10.0,NNE,5.8,-,N/A,Snow,Light Snow,30,2012-12-28 15:40:00
10:00 AM,10.4,10.4,100,30.03,10.0,North,5.8,-,N/A,,Overcast,10,2012-12-28 16:00:00
10:20 AM,10.4,10.4,100,30.03,10.0,North,5.8,-,N/A,Snow,Light Snow,360,2012-12-28 16:20:00
10:40 AM,10.4,10.4,100,30.03,10.0,North,9.2,-,N/A,Snow,Light Snow,360,2012-12-28 16:40:00
11:00 AM,10.4,10.4,100,30.03,10.0,North,8.1,-,N/A,Snow,Light Snow,350,2012-12-28 17:00:00
11:20 AM,10.4,10.4,100,30.02,10.0,North,4.6,-,N/A,,Overcast,350,2012-12-28 17:20:00
11:40 AM,10.4,10.4,100,30.02,10.0,North,4.6,-,N/A,Snow,Light Snow,350,2012-12-28 17:40:00
12:00 PM,12.2,12.2,100,30.02,10.0,North,6.9,-,N/A,Snow,Light Snow,360,2012-12-28 18:00:00
12:20 PM,12.2,12.2,100,30.02,10.0,North,6.9,-,N/A,,Mostly Cloudy,360,2012-12-28 18:20:00
12:40 PM,14.0,14.0,100,30.00,10.0,NNE,5.8,-,N/A,,Mostly Cloudy,20,2012-12-28 18:40:00
1:00 PM,12.2,12.2,100,29.99,-9999.0,North,5.8,-,N/A,Snow,Heavy Snow,10,2012-12-28 19:00:00
1:20 PM,14.0,14.0,100,29.99,10.0,North,5.8,-,N/A,,Mostly Cloudy,360,2012-12-28 19:20:00
1:40 PM,14.0,14.0,100,29.99,10.0,North,9.2,-,N/A,,Partly Cloudy,360,2012-12-28 19:40:00
2:00 PM,14.0,14.0,100,29.99,10.0,North,6.9,-,N/A,,Clear,350,2012-12-28 20:00:00
2:20 PM,14.0,14.0,100,29.99,10.0,NNE,6.9,-,N/A,,Clear,20,2012-12-28 20:20:00
2:40 PM,10.4,10.4,100,29.99,10.0,North,6.9,-,N/A,,Clear,10,2012-12-28 20:40:00
3:00 PM,10.4,10.4,100,30.00,10.0,North,5.8,-,N/A,,Clear,350,2012-12-28 21:00:00
3:20 PM,10.4,10.4,100,30.00,10.0,NNW,5.8,-,N/A,,Clear,340,2012-12-28 21:20:00
3:40 PM,10.4,10.4,100,30.00,10.0,North,8.1,-,N/A,,Clear,350,2012-12-28 21:40:00
4:00 PM,6.8,6.8,100,30.00,10.0,North,5.8,-,N/A,,Clear,350,2012-12-28 22:00:00
4:20 PM,6.8,6.8,100,30.01,10.0,NNW,6.9,-,N/A,,Clear,330,2012-12-28 22:20:00
4:40 PM,6.8,6.8,100,30.01,10.0,NW,4.6,-,N/A,,Clear,320,2012-12-28 22:40:00
5:00 PM,5.0,5.0,100,30.01,10.0,NW,4.6,-,N/A,,Clear,320,2012-12-28 23:00:00
5:20 PM,1.4,1.4,100,30.01,5.0,NW,5.8,-,N/A,,Clear,310,2012-12-28 23:20:00
5:40 PM,1.4,1.4,100,30.02,7.0,WNW,6.9,-,N/A,,Clear,300,2012-12-28 23:40:00
6:00 PM,5.0,5.0,100,30.03,9.0,WNW,5.8,-,N/A,,Mostly Cloudy,290,2012-12-29 00:00:00
6:20 PM,6.8,6.8,100,30.03,10.0,WNW,5.8,-,N/A,,Overcast,300,2012-12-29 00:20:00
6:40 PM,8.6,8.6,100,30.03,10.0,NW,6.9,-,N/A,,Overcast,310,2012-12-29 00:40:00
7:20 PM,8.6,8.6,100,30.03,10.0,NW,4.6,-,N/A,,Overcast,310,2012-12-29 01:20:00
7:40 PM,10.4,10.4,100,30.03,10.0,WNW,3.5,-,N/A,Snow,Light Snow,300,2012-12-29 01:40:00
8:00 PM,12.2,12.2,100,30.03,10.0,NW,9.2,-,N/A,,Overcast,310,2012-12-29 02:00:00
8:20 PM,12.2,12.2,100,30.03,10.0,NW,9.2,-,N/A,Snow,Light Snow,320,2012-12-29 02:20:00
8:40 PM,10.4,10.4,100,30.03,10.0,NW,8.1,-,N/A,Snow,Light Snow,320,2012-12-29 02:40:00
9:00 PM,10.4,10.4,100,30.03,10.0,NNW,8.1,-,N/A,Snow,Light Snow,330,2012-12-29 03:00:00
9:20 PM,10.4,10.4,100,30.03,10.0,WNW,4.6,-,N/A,,Overcast,300,2012-12-29 03:20:00
9:40 PM,10.4,10.4,100,30.03,10.0,NW,9.2,-,N/A,,Overcast,320,2012-12-29 03:40:00
10:00 PM,10.4,10.4,100,30.04,10.0,NW,9.2,-,N/A,,Overcast,310,2012-12-29 04:00:00
10:20 PM,10.4,10.4,100,30.04,10.0,WNW,9.2,-,N/A,,Overcast,300,2012-12-29 04:20:00
10:40 PM,10.4,10.4,100,30.04,10.0,NW,5.8,-,N/A,,Overcast,310,2012-12-29 04:40:00
11:00 PM,10.4,10.4,100,30.04,10.0,WNW,9.2,-,N/A,,Overcast,290,2012-12-29 05:00:00
11:20 PM,10.4,10.4,100,30.04,10.0,West,10.4,-,N/A,Snow,Light Snow,280,2012-12-29 05:20:00
11:40 PM,10.4,10.4,100,30.04,10.0,WNW,9.2,-,N/A,Snow,Light Snow,300,2012-12-29 05:40:00